Regional Weather Roundup
Issued by NWS

Home | Current Version | Previous Version | Graphics & Text | Print | Product List | Glossary On
Versions: 1 2 3 4 5 6 7 8 9 10 11 12 13 14 15 16 17 18 19 20 21 22 23 24 25 26 27 28 29 30 31 32 33 34 35 36 37 38 39 40 41 42 43 44 45 46 47 48 49 50
000
ASUS43 KMPX 242001
RWRMN
WEATHER ROUNDUP FOR MINNESOTA
NATIONAL WEATHER SERVICE TWIN CITIES/CHANHASSEN MN
300 PM CDT SAT SEP 24 2016


NOTE: "FAIR" INDICATES FEW OR NO CLOUDS BELOW 12,000 FEET WITH NO
SIGNIFICANT WEATHER AND/OR OBSTRUCTIONS TO VISIBILITY. N/A MEANS
CURRENT SKY AND/OR WEATHER CONDITIONS ARE NOT AVAILABLE.

MNZ060>063-068>070-242100-
   Twin Cities Metro

CITY           SKY/WX    TMP DP  RH WIND       PRES   REMARKS
TWIN CITIES    CLOUDY    71  64  78 E17       30.02F
ST PAUL        CLOUDY    68  63  84 SE13G24   30.03F
CRYSTAL        CLOUDY    70  62  76 SE16G22   30.00F
LAKEVILLE      PTSUNNY   72  64  78 SE9G17    30.02S
EDEN PRAIRIE   MOSUNNY   74  64  71 E17       29.99F
LAKEVILLE      PTSUNNY   72  64  78 SE9G17    30.02S
SOUTH ST PAUL  CLOUDY    69  64  84 SE8G17    30.03F
LAKE ELMO      CLOUDY    68  63  83 SE8       30.06F
$$
MNZ001>005-007-008-013>017-022>024-027-028-242100-
   Northwest Minnesota

CITY           SKY/WX    TMP DP  RH WIND       PRES   REMARKS
BEMIDJI        CLOUDY    65  61  86 SE12G17   29.96F
HALLOCK        MOSUNNY   75  68  78 S18       29.82F
ROSEAU         MOSUNNY   70  64  83 SE17      29.89F
WARROAD        PTSUNNY   70  64  83 SE17      29.93F
THIEF RVR FALL CLOUDY    74  64  71 SE20      29.88F
CROOKSTON      CLOUDY    75  66  73 SE16G23   29.84S
FOSSTON        PTSUNNY   72  61  68 SE10G20   29.90F
DETROIT LAKES  PTSUNNY   68  63  83 SE18G24   29.91F
MOORHEAD       CLOUDY    77  64  65 S16G30    29.84S
PARK RAPIDS    CLOUDY    66  60  81 SE15      29.96F
MAHNOMEN       FAIR      70  63  77 SE15G25   29.88F
$$
MNZ006-009>011-018-025>026-242100-
   North Central Minnesota

CITY           SKY/WX    TMP DP  RH WIND       PRES   REMARKS
BAUDETTE       CLOUDY    65  60  84 SE12      29.96F
FLAG ISLAND    CLOUDY    61  59  94 SE7       29.94F
INTL FALLS     CLOUDY    66  59  78 SE13      30.01F
WASKISH        CLOUDY    66  61  82 SE12      29.98S
BIG FORK       CLOUDY    64  59  82 SE7       30.02F
GRAND RAPIDS   CLOUDY    62  59  90 SE13      30.04F
ORR            CLOUDY    64  55  72 SE8       30.03F
COOK           CLOUDY    64  57  77 SE8G20    30.07S
WALKER         CLOUDY    63  60  90 SE9       29.98F
$$
MNZ012-019>021-037-242100-
   Northeast Minnesota

CITY           SKY/WX    TMP DP  RH WIND       PRES   REMARKS
DULUTH         CLOUDY    62  60  93 E13       30.08F
ELY            CLOUDY    63  55  77 SE10      30.10F
HIBBING        CLOUDY    61  58  90 SE9G21    30.06F
EVELETH        CLOUDY    61  56  85 SE10      30.09F
DULUTH HARBOR  CLOUDY    61  57  88 NE16      30.09F
TWO HARBORS    CLOUDY    63  57  82 NE10G16   30.09F
SILVER BAY     CLOUDY    59  57  94 NE9       30.11F FOG
GRAND MARAIS     N/A     62  57  83 NE8       30.17F
G MARAIS ARPRT CLOUDY    57  50  77 SE8       30.20S
$$
MNZ029>031-032-039>041-046>048-054>057-064-242100-
   West Central Minnesota

CITY           SKY/WX    TMP DP  RH WIND       PRES   REMARKS
FERGUS FALLS   PTSUNNY   73  64  73 SE18      29.90R
MORRIS         MOSUNNY   81  66  61 SE16G24   29.85F
ALEXANDRIA     CLOUDY    71  66  84 SE18G25   29.93F
ELBOW LAKE     LGT RAIN  71  67  88 E12G20    29.89S
GLENWOOD       CLOUDY    73  66  78 SE18G24   29.93F
BENSON         MOSUNNY   81  64  57 S12G24    29.87F
ORTONVILLE     CLOUDY    79  66  65 SE10G17   29.83F
MADISON          N/A     86  68  54 S16G26    29.83F
WILLMAR        FAIR      81  68  65 SE17      29.91F
$$
MNZ033>034-036-042>043-049>051-058-059-242100-
   Central Minnesota

CITY           SKY/WX    TMP DP  RH WIND       PRES   REMARKS
ST CLOUD       CLOUDY    67  64  90 E13G18    29.99F
SAUK CENTRE    CLOUDY    67  64  90 SE15G23   29.96F
PAYNESVILLE    CLOUDY    71  69  91 SE14      29.96F
AITKIN         CLOUDY    66  59  77 E9        30.01F
PINE RIVER     CLOUDY    63  63 100 SE8       30.02F
BRAINERD       CLOUDY    64  61  90 SE9       30.00F FOG
STAPLES        CLOUDY    63  61  94 SE13G18   29.97F FOG
LONG PRAIRIE   CLOUDY    64  63  94 E10G17    29.97F FOG
LITTLE FALLS   CLOUDY    64  61  88 SE13      29.99F FOG
BUFFALO        CLOUDY    71  63  76 E13G21    30.00F
MAPLE LAKE     CLOUDY    71  66  84 E10       30.00F
HUTCHINSON     MOSUNNY   79  69  70 E17       29.96F
$$
MNZ037-044-045-052-053-242100-
   East Central Minnesota

CITY           SKY/WX    TMP DP  RH WIND       PRES   REMARKS
PRINCETON      CLOUDY    70  64  83 SE13      30.02F
MORA           CLOUDY    64  61  88 SE9       30.06F
CAMBRIDGE      CLOUDY    70  61  73 SE10G18   30.02F
MOOSE LAKE     CLOUDY    64  59  82 S3        30.05F
HINCKLEY       CLOUDY    66  63  88 SE5       30.06F
CLOQUET        CLOUDY    61  57  88 E7        30.08F
MCGREGOR       CLOUDY    64  61  88 SE10      30.04F
$$
MNZ071>073-080-081-089-090-097-098-242100-
   Southwest Minnesota

CITY           SKY/WX    TMP DP  RH WIND       PRES   REMARKS
MONTEVIDEO     CLOUDY    82  68  61 S18G24    29.87F
GRANITE FALLS  CLOUDY    84  68  58 SE20G25   29.88F HAZE
CANBY          CLOUDY    82  68  63 SE12      29.85F
MARSHALL       PTSUNNY   81  69  67 SE16      29.85F
REDWOOD FALLS  SUNNY     82  67  60 SE23G31   29.89F
OLIVIA         SUNNY     79  66  65 SE18      29.90F
PIPESTONE      PTSUNNY   72  66  83 S14G25    29.85F
WINDOM         MOSUNNY   84  66  54 SE20G30   29.90F
WORTHINGTON    CLOUDY    83  68  60 SE21      29.88F
JACKSON        PTSUNNY   82  64  54 SE20G28   29.92F
TRACY          MOSUNNY   83  70  64 SE20G29   29.87F
$$
MNZ065>067-074>077-082>085-091>093-242100-
   South Central Minnesota

CITY           SKY/WX    TMP DP  RH WIND       PRES   REMARKS
MANKATO        SUNNY     79  67  66 SE18G25   29.95F
ST JAMES       SUNNY     82  66  57 SE16G28   29.92F
FAIRMONT       SUNNY     83  68  60 SE22G29   29.92F
GLENCOE        SUNNY     80  69  69 SE17      29.95F
FARIBAULT      SUNNY     79  66  65 E14G21    30.01F
OWATONNA       SUNNY     79  64  61 SE17G23   30.01F
WASECA         SUNNY     77  64  65 SE17      30.00F
ALBERT LEA     SUNNY     79  66  65 SE14      30.01F
$$
MNZ078>079-086>088-094>096-242100-
   Southeast Minnesota

CITY           SKY/WX    TMP DP  RH WIND       PRES   REMARKS
ROCHESTER      CLOUDY    70  65  84 SE14G23   30.06F
RED WING       CLOUDY    68  64  88 SE13G21   30.04F
DODGE CENTER   MOSUNNY   75  64  69 SE14      30.04F
WINONA         CLOUDY    70  63  78 SE9       30.09F
AUSTIN         SUNNY     75  64  69 SE12G18   30.02F
PRESTON        CLOUDY    67  63  84 SE12G21   30.08F HAZE
$$
ABBREVIATIONS USED IN REMARKS
   TC - TEMPERATURES IN CELSIUS
  WCI - WIND CHILL INDEX
   HX - HEAT INDEX
  VSB - VISIBILITY
$$



USA.gov is the U.S. government's official web portal to all federal, state and local government web resources and services.